This demonstration page uses our WeatherBlox Daily Observations layout. Learn more.

Hourly Observations for November 30, 2020

Temp ( °F °C ) Dew Point ( °F °C ) Humidity (%) Winds ( mph kmh ) Pressure ( in mb ) Visibility ( mi km ) Precip ( " mm )
12:53 am 00:53 Clear 13 -10.6 3 -16.1 64 64 Calm 30.41 1030 10 16.0934 0 0
1:53 am 01:53 Clear 11 -11.7 3 -16.1 70 70 NE 3 6 30.37 1029 10 16.0934 0 0
2:53 am 02:53 Clear 10 -12.2 4 -15.6 76 76 NNE 3 6 30.36 1028 10 16.0934 0 0
3:53 am 03:53 Clear 9 -12.8 4 -15.6 80 80 N 6 9 30.35 1028 10 16.0934 0 0
4:53 am 04:53 Clear 7 -13.9 2 -16.7 80 80 NNW 7 11 30.34 1027 10 16.0934 0 0
5:53 am 05:53 Clear 8 -13.3 3 -16.1 80 80 NNE 3 6 30.52 1033 10 16.0934 0 0
6:53 am 06:53 Clear 9 -12.8 3 -16.1 77 77 NNW 6 9 30.35 1028 10 16.0934 0 0
7:53 am 07:53 Sunny 16 -8.9 7 -13.9 67 67 N 5 7 30.32 1027 10 16.0934 0 0
8:53 am 08:53 Sunny 25 -3.9 14 -10 63 63 WNW 3 6 30.28 1026 10 16.0934 0 0
9:53 am 09:53 Sunny 38 3.3 12 -11.1 34 34 NW 9 15 30.24 1024 10 16.0934 0 0
10:53 am 10:53 Sunny 47 8.3 10 -12.2 22 22 WNW 14 22 30.16 1021 10 16.0934 0 0
11:53 am 11:53 Sunny 51 10.6 7 -13.9 17 17 WNW 13 20 30.11 1020 10 16.0934 0 0
12:53 pm 12:53 Sunny 55 12.8 8 -13.3 15 15 NW 12 19 30.06 1018 10 16.0934 0 0
1:53 pm 13:53 Sunny 60 15.6 2 -16.7 9 9 NW 17 28 30.02 1017 10 16.0934 0 0
2:53 pm 14:53 Sunny 60 15.6 0 -17.8 9 9 WNW 15 24 30.01 1016 10 16.0934 0 0
3:53 pm 15:53 Sunny 54 12.2 0 -17.8 11 11 WNW 8 13 30.02 1017 10 16.0934 0 0
4:53 pm 16:53 Clear 47 8.3 3 -16.1 16 16 W 12 19 30.03 1017 10 16.0934 0 0
5:53 pm 17:53 Clear 35 1.7 3 -16.1 26 26 WNW 7 11 30.06 1018 10 16.0934 0 0
6:53 pm 18:53 Clear 32 0 4 -15.6 30 30 WNW 9 15 30.07 1018 10 16.0934 0 0
7:53 pm 19:53 Clear 32 0 4 -15.6 30 30 NNW 7 11 30.03 1017 10 16.0934 0 0
8:53 pm 20:53 Clear 26 -3.3 4 -15.6 38 38 N 6 9 30 1016 10 16.0934 0 0
9:53 pm 21:53 Clear 28 -2.2 3 -16.1 34 34 Calm 29.95 1014 10 16.0934 0 0
10:53 pm 22:53 Clear 28 -2.2 5 -15 37 37 N 7 11 29.92 1013 10 16.0934 0 0
11:53 pm 23:53 Clear 29 -1.7 5 -15 36 36 NW 8 13 29.9 1013 10 16.0934 0 0

Powered by AerisWeather